Regional Weather Roundup
Issued by NWS

Home | Current Version | Previous Version | Text Only | Print | Product List | Glossary On
Versions: 1 2 3 4 5 6 7 8 9 10 11 12 13 14 15 16 17 18 19 20 21 22 23 24 25 26 27 28 29 30 31 32 33 34 35 36 37 38 39 40 41 42 43 44 45 46 47 48 49 50
000
ASCA42 TJSJ 131211
RWRPR
PUERTO RICO/U.S. VIRGIN ISLANDS HOURLY WEATHER ROUNDUP
NATIONAL WEATHER SERVICE SAN JUAN PR
800 AM AST SUN JUL 13 2014

PRZ001-004-131300-
PUERTO RICO

CITY           SKY/WX    TMP DP  RH WIND       PRES   REMARKS
SAN JUAN LMM   MOSUNNY   82  73  74 SE6       30.07R
AGUADILLA      MOSUNNY   79  73  83 E6        30.08R
CEIBA          MOSUNNY   82  72  69 E8        30.10R
$$

PRZ006-007-131300-
U.S. VIRGIN ISLANDS

CITY           SKY/WX    TMP DP  RH WIND       PRES   REMARKS
CHARLOTTE AMA  SUNNY     84  73  70 E10       30.07R HX  91
CHRISTIANSTED  MOSUNNY   84  72  65 E13       30.07R
$$

HOURLY WEATHER ROUNDUP FOR THE NEWS MEDIA

CITY           SKY/WX    TMP DP  RH WIND       PRES   REMARKS
MIAMI          MOSUNNY   82  74  76 SE8       30.06R
ORLANDO        MOSUNNY   77  76  96 CALM      30.10S
NEW YORK       PTSUNNY   73  68  83 S12       30.10F
NEWARK         PTSUNNY   74  68  81 S10       30.08F
CHICAGO        PTSUNNY   68  63  84 W7        29.93R
HARTFORD       SUNNY     73  64  73 SW12      30.11F
BOSTON         MOSUNNY   72  62  71 SW12      30.08F
DALLAS         PTCLDY    80  67  64 SW8       30.08R
PHILADELPHIA   CLOUDY    74  67  78 S9        30.08F


USA.gov is the U.S. government's official web portal to all federal, state and local government web resources and services.